Wind_Speed
26 27 27 27 27 27 27 27 27 28 28 28 28 28 29 30 30 28 30 27 26 26 27 26 27 29 29 27 25 22 25 18 22 24 26 26 27 25 31 32 31 28 30 29 26
29 28 27 27 26 26 27 27 27 27 27 27 28 29 29 29 24 23 25 22 22 21 21 22 23 24 23 19 18 17 21 12 15 19 21 22 23 24 29 30 27 33 31 31 32
30 28 29 29 28 27 26 25 26 26 26 25 25 24 24 25 21 23 21 23 24 23 22 22 22 23 21 18 19 20 24 17 20 17 18 17 20 21 25 26 18 25 33 32 33
31 31 30 29 30 30 28 26 25 25 25 26 25 25 27 28 29 28 27 28 28 28 26 25 27 26 25 24 25 23 28 25 26 20 19 20 23 24 21 16 20 20 24 25 32
32 32 32 31 32 31 30 29 28 28 27 26 27 28 31 34 34 31 34 33 33 33 32 31 30 28 30 30 28 30 34 33 29 26 22 20 27 29 25 16 27 23 24 22 23
35 35 33 33 33 33 33 33 33 31 29 29 29 30 33 40 37 35 35 35 34 34 33 33 33 34 35 37 35 36 39 41 40 33 31 21 30 31 29 22 30 28 26 28 27
35 37 37 35 34 34 34 33 34 32 33 33 33 32 34 45 40 39 34 35 35 33 32 32 32 30 32 37 38 38 36 41 47 42 39 31 32 40 37 32 35 34 33 32 29
36 34 37 39 37 38 35 36 37 34 33 32 33 32 34 45 45 44 40 40 39 37 37 38 32 32 36 40 38 39 30 34 46 43 37 35 30 47 39 35 35 36 33 33 34
45 40 37 40 42 42 40 42 42 41 38 35 35 32 38 46 46 45 45 46 46 45 45 38 34 38 42 46 36 37 29 33 36 50 33 30 28 37 39 35 34 41 35 31 34
53 51 50 45 45 46 44 43 43 42 44 40 39 43 41 45 48 49 48 49 47 47 44 44 42 41 45 49 38 37 35 36 36 54 39 25 25 29 40 36 39 40 41 35 34
61 54 49 46 49 53 52 50 47 45 45 45 44 46 48 46 49 51 55 52 48 44 47 46 44 43 48 47 44 42 38 37 39 43 33 28 24 28 36 44 44 44 40 41 41
55 56 59 59 55 53 48 48 52 51 49 54 52 45 51 50 42 50 54 53 51 53 54 52 46 48 48 49 49 48 46 40 38 42 29 29 27 32 36 44 49 46 45 43 42
63 56 63 62 61 64 61 64 62 54 50 55 60 56 55 53 47 57 63 61 58 58 60 55 54 53 60 57 57 53 57 51 45 46 41 40 27 35 40 42 48 52 51 50 43
67 66 62 70 66 67 67 72 71 71 63 46 51 58 69 67 59 62 63 65 60 56 60 51 60 59 54 55 64 55 65 58 53 48 43 40 32 30 39 44 45 50 54 53 51
73 71 71 69 71 71 65 66 76 78 55 63 54 60 72 74 71 68 69 60 64 70 65 61 59 53 58 70 72 57 62 58 56 51 41 43 48 32 38 41 47 51 54 58 60
78 75 75 75 78 78 75 79 79 79 71 76 69 68 64 67 76 79 72 75 73 70 74 77 66 71 82 78 69 70 65 66 59 52 48 50 56 40 47 49 46 50 56 60 61
83 82 82 80 80 83 88 89 92 82 75 82 81 82 76 70 71 76 86 70 77 88 78 80 80 76 75 77 80 77 78 82 77 78 55 53 44 23 41 49 52 61 64 61 61
91 91 87 86 87 87 93 100 91 89 80 90 89 89 84 76 83 83 87 83 82 87 87 84 76 82 84 84 83 86 84 90 96 88 81 78 44 35 48 49 51 60 70 71 70
102 100 96 97 97 97 99 89 88 94 95 96 95 91 87 85 90 88 90 85 89 93 100 95 92 85 90 89 84 86 96 96 100 99 102 81 67 53 66 66 68 61 67 78 78
110 107 101 105 109 102 106 96 93 97 102 101 106 99 98 94 98 95 93 94 96 101 106 104 101 94 94 97 94 92 94 104 102 109 107 98 99 75 88 99 96 93 92 90 85
115 110 109 107 107 110 106 107 108 108 105 106 98 112 107 110 114 101 102 103 108 109 112 115 113 104 100 103 107 104 106 106 109 104 113 112 108 92 98 97 97 102 102 106 105
118 120 117 117 121 110 109 109 115 104 114 115 122 122 118 119 123 125 117 119 116 117 118 122 129 125 108 106 117 113 111 113 116 116 119 125 125 81 93 104 105 117 125 119 108
130 136 131 126 128 127 124 116 116 119 118 125 130 129 127 130 133 135 133 127 131 130 132 130 129 135 123 116 121 120 121 128 125 126 133 135 132 114 113 111 114 125 120 120 113
140 138 141 140 135 134 131 134 134 134 134 134 136 132 134 136 139 145 134 137 141 138 137 136 138 136 135 132 129 133 135 133 131 137 142 142 135 132 138 133 128 120 120 121 125
152 145 143 143 147 147 149 151 152 151 148 143 147 146 148 147 147 145 146 146 144 146 142 142 145 141 145 147 143 145 150 146 151 145 145 146 149 150 144 147 145 135 129 134 130
168 163 166 165 164 163 165 163 160 155 159 159 163 161 164 162 161 160 160 157 157 159 159 159 162 163 163 156 161 164 155 152 142 143 154 155 152 156 159 154 156 151 145 139 137
158 157 152 137 141 139 136 142 144 140 146 139 150 152 143 140 143 146 151 156 156 148 141 141 146 148 149 150 160 160 151 150 146 142 143 141 137 140 139 134 132 139 143 141 120
Wind_Direction
266 269 270 269 267 267 272 275 274 278 277 278 277 280 279 279 280 284 288 292 294 296 296 296 292 290 290 289 290 294 291 301 293 292 292 288 285 285 279 273 268 264 265 272 273
268 270 272 275 276 273 272 272 273 274 277 281 282 284 282 282 282 284 292 294 291 292 297 300 296 293 294 292 291 298 295 290 297 299 302 297 293 281 277 275 282 264 264 263 270
270 270 269 273 275 275 275 275 272 274 277 277 281 283 282 279 275 278 282 285 285 287 291 293 295 291 293 283 282 295 295 293 287 296 300 308 293 291 285 288 304 277 267 264 263
277 274 271 271 270 271 271 273 273 272 272 273 274 275 275 275 275 281 277 281 283 286 285 285 287 290 286 288 288 287 297 295 294 288 293 292 293 293 288 302 299 287 290 285 270
273 276 278 279 274 271 270 273 272 271 273 274 277 278 278 276 282 280 283 286 288 288 288 288 289 292 291 290 290 284 289 288 287 288 291 293 292 288 293 295 294 291 293 292 286
270 268 271 276 277 277 277 280 276 275 275 276 279 280 278 273 285 285 287 289 289 291 293 294 295 300 296 291 293 292 291 290 288 287 283 283 291 289 293 298 288 292 290 290 289
271 269 269 270 272 278 279 280 281 284 284 286 286 283 285 279 283 285 289 287 286 288 291 295 298 301 300 300 293 291 298 295 295 297 286 288 291 289 290 292 289 292 293 289 284
280 274 270 277 275 278 276 279 278 281 284 287 287 289 286 286 288 290 291 289 287 286 292 294 296 293 290 290 288 290 299 293 294 289 292 295 299 289 292 292 291 289 287 287 286
278 281 283 280 280 280 279 280 280 280 280 281 285 287 289 287 290 289 291 292 291 290 292 292 294 291 283 280 282 282 290 279 284 288 298 299 299 286 291 286 285 284 286 286 285
280 279 281 285 285 281 286 286 280 281 282 287 286 289 285 287 288 291 291 293 295 291 289 287 296 298 284 277 280 279 277 271 279 282 290 289 291 290 292 297 286 282 284 282 282
277 274 270 277 280 282 284 285 283 287 293 289 290 292 288 283 286 294 289 289 289 291 289 290 301 288 282 289 281 272 270 269 272 279 279 286 272 286 292 295 288 286 289 288 290
275 269 268 270 272 276 280 284 280 282 287 286 287 290 285 285 281 285 290 292 289 292 293 288 294 291 288 287 286 284 273 270 260 274 275 278 288 274 276 278 283 286 287 286 282
275 276 265 265 272 267 270 277 280 281 284 282 283 283 287 286 278 283 285 286 293 294 289 294 291 289 290 283 287 289 281 267 264 269 269 270 275 277 273 272 276 282 283 283 280
273 276 278 262 266 267 271 270 271 275 284 289 286 286 279 280 282 281 283 282 285 292 287 296 292 285 286 294 285 286 292 280 265 261 264 277 265 253 268 276 278 275 277 275 275
273 273 276 264 263 266 272 274 271 270 286 282 289 284 283 279 275 284 278 284 283 280 284 290 282 290 291 288 290 287 285 293 278 274 273 271 272 246 253 266 276 271 270 273 276
277 277 277 278 268 264 272 272 270 276 279 287 289 286 284 273 269 269 281 272 278 286 284 286 284 281 286 288 291 285 292 296 297 288 284 286 272 254 254 250 257 258 260 265 268
276 278 280 281 271 269 269 273 266 281 277 280 290 288 287 272 274 267 277 276 273 280 293 292 278 285 282 286 287 290 287 293 302 301 293 281 286 276 251 248 256 258 255 253 253
281 281 280 277 273 273 277 273 271 288 280 275 287 281 281 279 275 274 280 279 279 280 286 291 289 279 285 285 288 287 287 294 293 297 299 301 277 265 285 283 260 256 250 252 252
280 282 282 280 276 276 274 275 285 284 281 278 283 276 281 282 279 281 278 281 283 287 289 290 294 278 281 282 284 288 290 288 292 287 298 296 294 277 301 296 293 269 265 264 264
278 280 281 276 280 275 272 278 282 279 276 277 285 286 282 276 282 279 280 279 284 287 286 287 289 288 284 290 286 281 277 279 289 282 281 293 297 301 297 298 297 292 283 281 274
273 275 277 271 277 272 274 276 277 280 275 280 276 283 283 281 283 276 279 281 280 284 283 285 286 287 284 291 287 281 283 285 281 282 275 281 287 299 295 292 288 284 278 287 295
269 276 272 268 275 270 270 267 271 273 274 274 276 278 278 279 282 281 281 284 280 282 282 285 284 286 284 285 288 287 283 280 281 285 284 282 290 279 274 278 277 281 289 292 288
273 272 274 271 271 273 266 265 266 274 270 271 275 274 273 276 280 280 280 283 280 282 283 285 285 287 286 287 288 282 281 284 285 286 287 288 287 280 280 269 277 284 287 287 282
272 271 271 271 270 271 270 266 271 273 272 270 269 272 270 273 274 276 276 276 279 281 281 282 283 285 285 284 283 283 281 281 281 284 287 284 283 278 281 280 278 279 279 278 279
271 271 269 269 269 268 271 271 271 272 271 270 270 271 270 270 271 269 273 272 272 277 277 277 278 277 279 281 280 278 279 280 282 282 277 279 279 281 278 278 278 276 272 274 274
276 275 274 274 271 272 273 272 274 272 270 269 272 272 274 272 270 269 270 272 272 272 271 274 273 273 272 274 273 274 275 279 278 272 275 277 274 272 277 275 273 274 274 275 273
276 277 278 277 277 275 273 272 273 273 271 271 270 270 272 272 271 272 272 271 273 273 273 273 273 273 274 273 271 273 276 274 274 276 277 275 276 277 276 276 277 275 275 276 278
Height
10812 10812 10813 10813 10813 10813 10813 10813 10813 10813 10813 10813 10812 10811 10810 10809 10809 10808 10806 10806 10804 10802 10801 10799 10798 10798 10796 10794 10793 10792 10789 10788 10787 10786 10784 10783 10781 10781 10777 10778 10779 10782 10780 10780 10780
10808 10808 10808 10808 10808 10808 10808 10808 10808 10808 10808 10808 10807 10806 10805 10804 10804 10803 10801 10800 10799 10798 10797 10796 10794 10793 10792 10791 10790 10788 10785 10786 10784 10783 10781 10779 10777 10776 10773 10771 10774 10774 10776 10776 10776
10804 10804 10803 10803 10803 10803 10802 10802 10803 10803 10803 10802 10802 10801 10799 10798 10799 10798 10797 10796 10795 10794 10793 10791 10791 10790 10789 10788 10787 10785 10782 10782 10780 10780 10778 10777 10773 10772 10769 10768 10771 10769 10769 10770 10771
10798 10798 10798 10798 10798 10798 10797 10797 10797 10797 10798 10797 10797 10796 10794 10791 10793 10793 10791 10791 10790 10790 10789 10788 10787 10786 10785 10785 10784 10783 10778 10778 10776 10777 10776 10773 10770 10767 10768 10769 10764 10765 10764 10765 10764
10791 10791 10791 10792 10792 10793 10793 10792 10792 10791 10792 10792 10791 10791 10788 10784 10785 10787 10785 10785 10784 10784 10784 10783 10783 10783 10780 10778 10779 10777 10774 10772 10772 10772 10772 10772 10767 10762 10764 10767 10760 10762 10761 10760 10760
10784 10784 10784 10784 10784 10785 10785 10787 10788 10788 10787 10787 10786 10786 10782 10774 10779 10780 10779 10778 10778 10778 10778 10778 10778 10778 10776 10772 10773 10771 10769 10765 10764 10766 10767 10769 10762 10759 10759 10763 10757 10758 10757 10756 10755
10775 10776 10777 10776 10777 10777 10779 10780 10781 10782 10782 10783 10782 10781 10778 10765 10769 10770 10773 10772 10771 10770 10771 10772 10772 10771 10769 10766 10765 10764 10764 10759 10753 10758 10758 10764 10760 10751 10753 10757 10754 10754 10752 10750 10748
10767 10767 10768 10769 10769 10770 10771 10772 10772 10773 10774 10775 10776 10776 10773 10761 10763 10762 10764 10764 10765 10765 10765 10764 10764 10764 10760 10757 10758 10756 10759 10756 10743 10744 10752 10755 10757 10736 10746 10747 10745 10743 10745 10744 10741
10759 10759 10760 10760 10760 10760 10761 10762 10762 10763 10764 10766 10767 10768 10766 10756 10753 10754 10755 10755 10755 10755 10755 10754 10755 10754 10750 10742 10749 10746 10753 10748 10744 10729 10747 10749 10748 10736 10733 10736 10737 10728 10732 10735 10734
10751 10752 10752 10752 10751 10751 10753 10753 10753 10753 10754 10756 10758 10757 10758 10752 10746 10743 10743 10743 10744 10744 10743 10743 10745 10743 10733 10729 10742 10738 10739 10739 10739 10719 10735 10743 10742 10735 10725 10728 10723 10722 10719 10722 10723
10741 10743 10744 10744 10743 10742 10742 10743 10744 10745 10744 10744 10747 10746 10745 10745 10742 10734 10729 10729 10733 10734 10733 10734 10734 10730 10719 10722 10724 10725 10727 10729 10725 10719 10728 10730 10734 10731 10723 10714 10711 10711 10714 10711 10708
10729 10731 10733 10734 10734 10733 10732 10731 10731 10733 10737 10734 10733 10736 10731 10732 10733 10725 10717 10718 10721 10722 10720 10722 10726 10714 10712 10709 10709 10712 10715 10718 10718 10713 10718 10722 10728 10725 10718 10710 10699 10702 10702 10700 10699
10718 10719 10720 10721 10720 10721 10721 10719 10720 10722 10729 10727 10721 10723 10717 10717 10721 10713 10707 10709 10710 10709 10704 10707 10711 10701 10697 10698 10693 10696 10696 10701 10706 10703 10705 10708 10721 10719 10708 10704 10698 10691 10692 10688 10687
10703 10705 10705 10705 10704 10707 10707 10705 10705 10706 10714 10720 10712 10708 10702 10701 10706 10699 10695 10695 10700 10696 10692 10697 10690 10687 10685 10684 10675 10690 10674 10684 10686 10688 10695 10695 10706 10708 10703 10695 10691 10685 10679 10678 10673
10686 10688 10689 10688 10687 10687 10690 10689 10689 10685 10700 10701 10702 10697 10690 10686 10688 10686 10681 10681 10684 10683 10681 10683 10677 10673 10672 10667 10665 10672 10666 10665 10670 10676 10682 10687 10686 10694 10691 10687 10681 10675 10671 10662 10657
10668 10670 10671 10669 10668 10668 10668 10669 10666 10666 10683 10679 10679 10678 10676 10672 10669 10670 10667 10667 10663 10665 10664 10662 10659 10663 10658 10651 10647 10648 10647 10647 10651 10655 10668 10666 10666 10685 10677 10675 10673 10666 10658 10650 10647
10645 10649 10649 10648 10648 10644 10644 10644 10640 10656 10664 10660 10655 10651 10651 10649 10649 10647 10646 10646 10642 10640 10643 10642 10641 10643 10635 10634 10627 10621 10622 10622 10625 10629 10646 10647 10658 10666 10663 10656 10653 10647 10641 10634 10630
10622 10625 10629 10624 10623 10622 10621 10618 10622 10643 10637 10634 10630 10626 10629 10622 10620 10621 10620 10622 10617 10613 10618 10619 10627 10619 10617 10610 10606 10602 10595 10591 10585 10602 10613 10620 10645 10648 10644 10639 10630 10626 10620 10614 10610
10595 10600 10607 10595 10596 10598 10592 10594 10612 10612 10609 10600 10598 10601 10603 10598 10588 10595 10594 10600 10597 10590 10582 10584 10604 10602 10595 10591 10585 10583 10572 10563 10555 10563 10566 10599 10618 10623 10622 10615 10613 10605 10597 10586 10585
10570 10575 10584 10569 10567 10568 10567 10585 10585 10582 10573 10567 10569 10570 10581 10578 10568 10567 10566 10576 10574 10570 10559 10555 10562 10574 10571 10569 10566 10554 10554 10547 10540 10521 10526 10556 10568 10604 10597 10585 10579 10572 10557 10553 10556
10547 10553 10559 10545 10540 10544 10552 10559 10555 10558 10544 10542 10541 10538 10547 10549 10542 10540 10537 10551 10550 10545 10534 10530 10522 10550 10548 10555 10541 10529 10522 10520 10508 10504 10496 10501 10533 10581 10560 10553 10543 10529 10522 10527 10535
10522 10526 10532 10525 10518 10526 10539 10533 10531 10540 10532 10521 10516 10519 10516 10518 10509 10507 10507 10514 10519 10511 10509 10503 10488 10492 10521 10520 10512 10502 10495 10486 10472 10482 10469 10453 10469 10556 10536 10519 10496 10494 10507 10509 10509
10499 10497 10497 10496 10501 10499 10504 10506 10502 10513 10507 10498 10489 10491 10488 10485 10475 10483 10484 10489 10480 10476 10469 10472 10461 10451 10467 10485 10483 10460 10462 10453 10449 10441 10440 10435 10431 10466 10490 10479 10473 10474 10476 10476 10477
10465 10468 10468 10463 10469 10466 10469 10476 10474 10477 10476 10461 10458 10461 10461 10456 10456 10445 10458 10456 10450 10441 10437 10431 10430 10425 10418 10435 10453 10434 10425 10426 10424 10415 10414 10402 10395 10411 10411 10433 10439 10443 10444 10442 10439
10428 10430 10433 10433 10433 10432 10430 10435 10445 10441 10431 10429 10422 10425 10419 10419 10421 10421 10418 10421 10424 10418 10411 10401 10399 10399 10403 10399 10399 10397 10395 10408 10408 10392 10370 10378 10364 10364 10376 10377 10382 10400 10408 10405 10405
10381 10381 10390 10394 10394 10393 10388 10395 10393 10402 10385 10394 10373 10386 10375 10372 10369 10374 10377 10384 10383 10385 10378 10376 10371 10365 10372 10383 10353 10348 10372 10378 10357 10360 10342 10338 10340 10336 10334 10331 10328 10333 10342 10356 10362
10331 10334 10338 10340 10341 10341 10343 10342 10344 10345 10340 10339 10340 10334 10332 10324 10321 10322 10326 10333 10331 10335 10331 10328 10325 10317 10321 10336 10307 10313 10349 10325 10316 10311 10297 10293 10285 10281 10284 10287 10282 10282 10286 10292 10295